Location: Le Rouget
(44.8538°N, 2.2328°E)
Time: 13:28:44
(UTC+00:00)

Cosmos 1461 - Pass Details

Date: 15 May 2026
Orbit: 422 x 475 km, 65.0° (Epoch: 11 June)

Event Time Altitude Azimuth Distance (km) Brightness Sun altitude
Rises 19:46:22 0° 187° (S) 2,524 5.9 -5.9°
Maximum altitude 19:51:50 27° 116° (ESE) 959 3.5 -6.7°
Drops below altitude 10° 19:54:59 10° 57° (ENE) 1,654 5.1 -7.1°
Sets 19:57:19 0° 45° (NE) 2,531 6.1 -7.5°
